WORLDVIEW 2 DEB, 41742

Orbit data source: Space-Track

WORLDVIEW 2 DEB, 41742 is space debris in SSO originally from a launch on Thu, 08 Oct 2009 UTC launched from the Air Force Western Test Range (AFWTR). Debris objects in space refer to the collection of defunct objects orbiting the Earth. Examples of debris include non-operational satellites, rocket bodies, and fragments generated from explosions, collisions, or faulty payload assembly.

Loading next visibility...
Identifier
41742, 2009-055K
Orbit
SSO
Country
Flag of USUS
Related business
Manufacturer
Ball
Mission
Spacecraft
Bus & Motor
Unknown
Mass
Unknown
Launch date (UTC)
2009-10-08 (17 years ago)
Launch vehicle
Unknown
Launch site
Air Force Western Test Range (AFWTR)
Object type
Payload
Rocket body
Debris
Shape & HBR
Unknown shape, 0.1 m
Radar Cross Section
Medium (>0.1 m² and <1 m²)

Expand to show TLE details & history
Last TLE update: 19 hours ago

TLE from 19 hours ago
0 WORLDVIEW 2 DEB
1 41742U 09055K   26238.20820801  .00003297  00000-0  70953-3 0  9997
2 41742  98.3529 332.8882 0006596   0.3731 359.7472 14.59155508532325
Epoch: 2026-08-26T04:59Z
TLE epoch observation values (Epoch: 2026-08-26T04:59:49.172Z)
Latitude
0.00001°
Longitude
-76.53119°
Altitude
694.214 km
Speed
7.512 km/s
True Right ascension
22h 11m 33s
True Declination
0° 00' 00"
Sunlit
Object was in full shadow at epoch
Visualization orbit readout
Latitude
Unknown
Longitude
Unknown
Altitude
Unknown
Speed
Unknown
Apparent Right ascension
Unknown
Apparent Declination
Unknown
Sunlit
N/A
Visualization observer readout
Local Sidereal Time
15:14:21
Azimuth
Unknown
Elevation
Unknown
Doppler factor
Unknown
Orbital elements
Apogee altitude
697.656 km
Perigee altitude
688.327 km
Semi-major axis
7,071.129 km
Eccentricity
0.00066
Inclination
98.3529°
RAAN
332.8882°
Arg. of periapsis
0.3731°
True anomaly
359.74687°
Mean anomaly
359.7472°
Eccentric anomaly
359.74703°
Mean motion
3.65014 °/min
Orbital period
98.63 mins
BSTAR
0.00070953
Loading maneuver chart data...
Computing Atmospheric mass density...

Documentation

Showing up to 5 results
|